KI4CGS Weather Reports


time (UTC)temp
C
wind
direction
speed
KPH
gust
KPH
rain 1hr
cm
rain 24hr
cm
rain mn
cm
humidity
%
barometer
mb
20260906134019 23 125 3.2 6.4 0.00 0.05 0.05 94 1015.0
20260906133515 23 161 1.6 8.0 0.00 0.05 0.05 94 1015.1
20260906133038 22 164 0.0 8.0 0.00 0.05 0.05 94 1015.0
20260906132517 22 138 1.6 6.4 0.00 0.05 0.05 94 1015.1
20260906132017 22 135 1.6 6.4 0.00 0.05 0.05 94 1015.3
20260906131535 22 137 3.2 6.4 0.00 0.05 0.05 94 1015.1
20260906131020 22 138 1.6 6.4 0.00 0.05 0.05 94 1015.1
20260906130524 22 0 0.0 0.0 0.00 0.05 0.05 94 1015.1
20260906130035 22 0 0.0 0.0 0.00 0.05 0.05 94 1015.1
20260906125520 22 0 0.0 0.0 0.00 0.05 0.05 94 1015.1
20260906125017 22 0 0.0 0.0 0.00 0.05 0.05 94 1015.1
20260906124539 22 0 0.0 0.0 0.00 0.05 0.05 94 1015.1
20260906124018 21 0 0.0 0.0 0.00 0.05 0.05 94 1015.1
20260906123516 21 0 0.0 1.6 0.00 0.05 0.05 94 1015.0
20260906123036 21 0 0.0 3.2 0.00 0.05 0.05 94 1015.1
20260906122516 21 0 0.0 3.2 0.00 0.05 0.05 93 1015.1
20260906122023 21 0 0.0 0.0 0.00 0.05 0.05 93 1014.9
20260906121536 21 0 0.0 0.0 0.00 0.05 0.05 94 1014.9
20260906121020 21 0 0.0 0.0 0.00 0.05 0.05 94 1014.9
20260906120520 21 0 0.0 0.0 0.00 0.05 0.05 94 1014.9
20260906120036 21 0 0.0 0.0 0.00 0.05 0.05 93 1014.7
20260906115520 21 0 0.0 0.0 0.00 0.05 0.05 93 1014.7
20260906115019 21 0 0.0 0.0 0.00 0.05 0.05 93 1014.5
20260906114544 21 0 0.0 0.0 0.00 0.05 0.05 93 1014.5
20260906114016 21 0 0.0 0.0 0.00 0.05 0.05 93 1014.4
20260906113518 21 0 0.0 0.0 0.00 0.05 0.05 93 1014.3
20260906113035 21 0 0.0 0.0 0.00 0.05 0.05 93 1014.2
20260906112515 21 0 0.0 0.0 0.00 0.05 0.05 93 1014.2
20260906112019 21 0 0.0 0.0 0.00 0.05 0.05 93 1014.2
20260906111533 21 0 0.0 0.0 0.00 0.05 0.05 93 1014.2
20260906111020 21 0 0.0 1.6 0.00 0.05 0.05 93 1014.2
20260906110518 22 0 0.0 1.6 0.00 0.05 0.05 93 1014.2
20260906110034 22 0 0.0 0.0 0.00 0.05 0.05 93 1014.1
20260906105520 22 0 0.0 0.0 0.00 0.05 0.05 93 1014.1
20260906105020 22 0 0.0 1.6 0.00 0.05 0.05 93 1014.0
20260906104537 22 0 0.0 1.6 0.00 0.05 0.05 93 1013.8
20260906104018 22 0 0.0 1.6 0.00 0.05 0.05 93 1013.7
20260906103518 22 0 0.0 1.6 0.00 0.05 0.05 93 1013.8
20260906103034 22 0 0.0 1.6 0.00 0.05 0.05 93 1013.8
20260906102517 22 0 0.0 0.0 0.00 0.05 0.05 93 1013.7
20260906102016 22 0 0.0 0.0 0.00 0.05 0.05 93 1013.8
20260906101534 22 0 0.0 1.6 0.00 0.05 0.05 93 1013.9
20260906101023 22 0 0.0 6.4 0.00 0.05 0.05 93 1013.8
20260906100523 22 0 0.0 6.4 0.00 0.05 0.05 92 1014.0
20260906100033 22 0 0.0 0.0 0.00 0.05 0.05 92 1014.2
20260906095520 22 0 0.0 0.0 0.00 0.05 0.05 92 1014.1
20260906095017 22 0 0.0 6.4 0.00 0.05 0.05 92 1014.1
20260906094541 22 0 1.6 6.4 0.03 0.05 0.05 92 1014.3
20260906094016 22 315 0.0 4.8 0.03 0.05 0.05 92 1014.3
20260906093517 22 316 0.0 3.2 0.03 0.05 0.05 92 1014.4
20260906093034 22 316 0.0 3.2 0.03 0.05 0.05 92 1014.3
20260906092520 22 0 0.0 3.2 0.03 0.05 0.05 92 1014.5
20260906092022 22 0 0.0 4.8 0.03 0.05 0.05 92 1014.6
20260906091540 22 0 0.0 4.8 0.03 0.05 0.05 92 1014.5
20260906091020 22 0 0.0 4.8 0.03 0.05 0.05 92 1014.4
20260906090519 22 13 0.0 3.2 0.05 0.05 0.05 92 1014.3
20260906090037 22 13 0.0 4.8 0.05 0.05 0.05 92 1014.4
20260906085519 23 0 0.0 4.8 0.05 0.05 0.05 92 1014.5
20260906085020 23 13 3.2 4.8 0.05 0.05 0.05 92 1014.6
20260906084538 23 0 0.0 3.2 0.03 0.03 0.03 91 1014.7
20260906084019 23 0 0.0 3.2 0.03 0.03 0.03 91 1014.7
20260906083518 23 9 0.0 3.2 0.03 0.03 0.03 91 1014.6
20260906083035 23 0 0.0 8.0 0.03 0.03 0.03 90 1014.7
20260906082518 23 9 1.6 12.9 0.03 0.03 0.03 90 1014.6
20260906082018 23 339 4.8 12.9 0.03 0.03 0.03 90 1014.6
20260906081541 23 360 3.2 6.4 0.03 0.03 0.03 91 1014.4
20260906081020 23 345 1.6 6.4 0.03 0.03 0.03 90 1013.9
20260906080520 23 9 0.0 3.2 0.00 0.00 0.00 90 1013.7
20260906080037 23 0 0.0 6.4 0.00 0.00 0.00 90 1013.8
20260906075519 23 5 0.0 11.3 0.00 0.00 0.00 89 1013.7
20260906075021 23 360 4.8 11.3 0.00 0.00 0.00 89 1013.9
20260906074534 23 168 0.0 8.0 0.00 0.00 0.00 88 1013.7
20260906074019 23 192 1.6 9.7 0.00 0.00 0.00 88 1013.8
20260906073516 23 121 3.2 9.7 0.00 0.00 0.00 87 1013.8
20260906073041 23 0 1.6 6.4 0.00 0.00 0.00 87 1014.0
20260906072520 23 257 1.6 9.7 0.00 0.00 0.00 87 1014.2
20260906072020 23 0 3.2 9.7 0.00 0.00 0.00 87 1014.1
20260906071536 23 125 3.2 9.7 0.00 0.00 0.00 88 1014.3
20260906071020 23 86 1.6 9.7 0.00 0.00 0.00 88 1014.4
20260906070524 23 113 3.2 9.7 0.00 0.00 0.00 88 1014.6
20260906070037 23 0 3.2 24.1 0.00 0.00 0.00 89 1014.6
20260906065519 22 258 8.0 24.1 0.00 0.00 0.00 90 1014.8
20260906065016 22 260 4.8 12.9 0.00 0.00 0.00 92 1014.9
20260906064537 22 0 1.6 8.0 0.00 0.00 0.00 92 1015.1
20260906064018 22 0 0.0 14.5 0.00 0.00 0.00 92 1015.0
20260906063518 22 321 4.8 14.5 0.00 0.00 0.00 92 1015.1
20260906063037 22 334 4.8 8.0 0.00 0.00 0.00 92 1015.3
20260906062519 22 0 0.0 0.0 0.00 0.00 0.00 92 1015.0
20260906062020 22 0 0.0 0.0 0.00 0.00 0.00 92 1014.9
20260906061538 22 0 0.0 3.2 0.00 0.00 0.00 92 1015.0
20260906061019 22 0 0.0 3.2 0.00 0.00 0.00 92 1015.1
20260906060520 22 68 0.0 3.2 0.00 0.00 0.00 92 1014.9
20260906060049 22 0 0.0 3.2 0.00 0.00 0.00 92 1014.9
20260906055520 22 68 0.0 3.2 0.00 0.00 0.00 92 1014.9
20260906055023 22 68 0.0 3.2 0.00 0.00 0.00 92 1014.6
20260906054535 22 0 0.0 3.2 0.00 0.00 0.00 92 1014.3
20260906054019 22 0 1.6 3.2 0.00 0.00 0.00 92 1014.4
20260906053520 22 0 0.0 6.4 0.00 0.00 0.00 92 1014.3
20260906053038 22 38 0.0 6.4 0.00 0.00 0.00 92 1014.2
20260906052526 22 10 3.2 6.4 0.00 0.00 0.00 92 1014.1
20260906052021 22 0 0.0 4.8 0.00 0.00 0.00 92 1014.0
20260906051536 22 360 1.6 4.8 0.00 0.00 0.00 92 1014.1
20260906051020 22 360 1.6 4.8 0.00 0.00 0.00 92 1014.2
20260906050519 22 0 0.0 0.0 0.00 0.00 0.00 92 1014.2
20260906050038 22 0 0.0 0.0 0.00 0.00 0.00 92 1014.2
20260906045521 22 0 0.0 0.0 0.00 0.00 0.00 92 1014.2
20260906045019 22 0 0.0 0.0 0.00 0.00 0.00 92 1014.3
20260906044538 22 0 0.0 0.0 0.00 0.00 0.00 91 1014.3
20260906044019 22 0 0.0 0.0 0.00 0.00 0.00 91 1014.3
20260906043520 23 0 0.0 0.0 0.00 0.00 0.00 91 1014.3
20260906043040 23 0 0.0 0.0 0.00 0.00 0.00 91 1014.4
20260906042520 23 0 0.0 0.0 0.00 0.00 0.00 91 1014.5
20260906042020 23 0 0.0 0.0 0.00 0.00 0.00 91 1014.5
20260906041537 23 0 0.0 0.0 0.00 0.00 0.00 91 1014.4
20260906041018 23 0 0.0 0.0 0.00 0.00 0.00 91 1014.5
20260906040517 23 0 0.0 0.0 0.00 0.00 0.00 91 1014.7
20260906040040 23 0 0.0 0.0 0.00 0.00 0.00 91 1014.6
20260906035519 23 0 0.0 0.0 0.00 0.00 0.00 90 1014.7
20260906035020 23 0 0.0 3.2 0.00 0.00 0.00 90 1014.8
20260906034536 23 0 0.0 3.2 0.00 0.00 0.00 90 1014.7
20260906034020 23 360 0.0 1.6 0.00 0.00 0.00 90 1014.7
20260906033520 23 0 0.0 3.2 0.00 0.00 0.00 90 1014.5
20260906033037 23 0 0.0 3.2 0.00 0.00 0.00 90 1014.7
20260906032519 23 0 0.0 1.6 0.00 0.00 0.00 89 1014.7
20260906032022 23 0 0.0 0.0 0.00 0.00 0.00 90 1014.7
20260906031603 23 0 0.0 0.0 0.00 0.00 0.00 90 1014.6
20260906031019 23 0 0.0 0.0 0.00 0.00 0.00 90 1014.7
20260906030520 23 0 0.0 0.0 0.00 0.00 0.00 89 1014.8
20260906030037 23 0 0.0 3.2 0.00 0.00 0.00 89 1014.7
20260906025521 23 0 0.0 3.2 0.00 0.00 0.00 89 1014.6
20260906025021 23 360 1.6 3.2 0.00 0.00 0.00 89 1014.5
20260906024542 24 360 0.0 1.6 0.00 0.00 0.00 89 1014.4
20260906024020 24 0 0.0 0.0 0.00 0.00 0.00 89 1014.2
20260906023520 24 0 0.0 0.0 0.00 0.00 0.00 89 1014.3
20260906023048 24 0 0.0 0.0 0.00 0.00 0.00 89 1014.2
20260906022520 24 0 0.0 1.6 0.00 0.00 0.00 88 1014.0
20260906022020 24 0 0.0 1.6 0.00 0.00 0.00 88 1013.9
20260906021536 24 0 0.0 1.6 0.00 0.00 0.00 88 1013.8
20260906021022 24 0 0.0 1.6 0.00 0.00 0.00 88 1013.8
20260906020519 24 0 0.0 3.2 0.00 0.00 0.00 87 1013.8
20260906020045 24 0 0.0 3.2 0.00 0.00 0.00 87 1013.9
20260906015518 25 360 0.0 3.2 0.00 0.00 0.00 87 1014.0
20260906015019 25 0 0.0 1.6 0.00 0.00 0.00 87 1014.0
20260906014539 25 0 0.0 1.6 0.00 0.00 0.00 87 1014.0
20260906014024 25 0 0.0 1.6 0.00 0.00 0.00 86 1013.8
20260906013519 25 0 0.0 3.2 0.00 0.00 0.00 86 1013.9
20260906013039 25 0 0.0 3.2 0.00 0.00 0.00 86 1013.9
20260906012520 25 360 0.0 3.2 0.00 0.00 0.00 86 1013.9
20260906012022 25 0 0.0 3.2 0.00 0.00 0.00 86 1013.8
20260906011538 25 0 0.0 3.2 0.00 0.00 0.00 85 1013.7
20260906011020 25 0 0.0 6.4 0.00 0.00 0.00 84 1013.6
20260906010522 25 0 0.0 6.4 0.00 0.00 0.00 84 1013.4
20260906010038 25 360 3.2 6.4 0.00 0.00 0.00 84 1013.3
20260906005520 25 18 0.0 6.4 0.00 0.00 0.00 83 1013.3
20260906005020 25 0 0.0 3.2 0.00 0.00 0.00 83 1013.3
20260906004546 25 0 0.0 3.2 0.00 0.00 0.00 83 1013.3
20260906004024 26 0 0.0 4.8 0.00 0.00 0.00 83 1013.3
20260906003518 26 0 1.6 6.4 0.00 0.00 0.00 83 1013.4
20260906003034 26 0 1.6 6.4 0.00 0.00 0.00 82 1013.2
20260906002518 26 311 1.6 6.4 0.00 0.00 0.00 81 1013.2
20260906002020 26 311 1.6 4.8 0.00 0.00 0.00 81 1013.2
20260906001544 26 307 0.0 3.2 0.00 0.00 0.00 81 1013.3
20260906001025 26 0 0.0 6.4 0.00 0.00 0.00 80 1013.4
20260906000521 26 307 0.0 6.4 0.00 0.00 0.00 80 1013.3
20260906000035 26 0 1.6 6.4 0.00 0.00 0.00 79 1013.3
20260905235519 27 317 0.0 8.0 0.00 0.00 0.00 78 1013.2
20260905235024 27 313 3.2 8.0 0.00 0.00 0.00 78 1013.4
20260905234536 27 344 1.6 4.8 0.00 0.00 0.00 78 1013.5
20260905234016 27 0 0.0 4.8 0.00 0.00 0.00 77 1013.4
20260905233520 27 0 0.0 6.4 0.00 0.00 0.00 77 1013.5
20260905233043 27 324 1.6 6.4 0.00 0.00 0.00 77 1013.5
20260905232520 27 36 0.0 4.8 0.00 0.00 0.00 78 1013.6
20260905232020 27 36 0.0 4.8 0.00 0.00 0.00 78 1013.7
20260905231539 27 35 0.0 4.8 0.00 0.00 0.00 78 1013.6
20260905231021 27 61 0.0 4.8 0.00 0.00 0.00 77 1013.6
20260905230520 28 75 1.6 4.8 0.00 0.00 0.00 76 1013.2
20260905230036 28 0 0.0 0.0 0.00 0.00 0.00 74 1013.0
20260905225520 28 0 0.0 3.2 0.00 0.00 0.00 74 1012.9
20260905225019 28 0 0.0 6.4 0.00 0.00 0.00 72 1012.8
20260905224534 28 85 3.2 8.0 0.00 0.00 0.00 70 1012.8
20260905224023 29 38 0.0 12.9 0.00 0.00 0.00 68 1012.8
20260905223516 29 246 3.2 12.9 0.00 0.00 0.00 68 1012.8
20260905223035 29 343 4.8 12.9 0.00 0.00 0.00 67 1012.5
20260905222521 30 339 4.8 12.9 0.00 0.00 0.00 66 1012.6
20260905222019 30 360 1.6 8.0 0.00 0.00 0.00 67 1012.6
20260905221549 30 0 1.6 11.3 0.00 0.00 0.00 65 1012.5
20260905221020 30 23 3.2 11.3 0.00 0.00 0.00 65 1012.9
20260905220518 30 271 1.6 20.9 0.00 0.00 0.00 65 1013.3
20260905220035 30 360 3.2 20.9 0.00 0.00 0.00 64 1013.4
20260905215520 30 330 1.6 19.3 0.00 0.00 0.00 64 1013.6
20260905215019 30 5 6.4 22.5 0.00 0.00 0.00 63 1013.6
20260905214535 31 340 9.7 32.2 0.00 0.00 0.00 61 1013.6
20260905214020 31 329 8.0 32.2 0.00 0.00 0.00 60 1013.7
20260905213520 31 348 17.7 32.2 0.00 0.00 0.00 59 1013.5
20260905213035 31 323 6.4 16.1 0.00 0.00 0.00 62 1013.4
20260905212521 31 309 6.4 16.1 0.00 0.00 0.00 63 1013.2
20260905212020 31 352 8.0 20.9 0.00 0.00 0.00 62 1013.1
20260905211535 31 325 4.8 20.9 0.00 0.00 0.00 60 1013.1
20260905211017 32 24 9.7 20.9 0.00 0.00 0.00 57 1013.1
20260905210519 32 28 6.4 19.3 0.00 0.00 0.00 57 1013.0
20260905210036 32 352 8.0 17.7 0.00 0.00 0.00 57 1013.0
20260905205519 32 22 3.2 8.0 0.00 0.00 0.00 56 1012.8
20260905205020 32 360 1.6 6.4 0.00 0.00 0.00 55 1012.9
20260905204541 32 0 0.0 8.0 0.00 0.00 0.00 52 1013.1
20260905204019 32 281 1.6 16.1 0.00 0.00 0.00 53 1013.1
20260905203516 32 337 6.4 16.1 0.00 0.00 0.00 51 1013.2
20260905203034 33 0 0.0 6.4 0.00 0.00 0.00 52 1013.1
20260905202521 33 15 1.6 8.0 0.00 0.00 0.00 51 1013.2
20260905202019 34 66 1.6 22.5 0.00 0.00 0.00 48 1013.2
20260905201534 35 0 8.0 27.4 0.00 0.00 0.00 46 1013.2
20260905201020 36 13 9.7 27.4 0.00 0.00 0.00 46 1013.4
20260905200526 36 21 8.0 19.3 0.00 0.00 0.00 46 1013.2
20260905200041 37 342 3.2 14.5 0.00 0.00 0.00 46 1013.2
20260905195519 37 331 3.2 14.5 0.00 0.00 0.00 46 1013.1
20260905195020 37 17 6.4 14.5 0.00 0.00 0.00 45 1013.1
20260905194538 37 338 6.4 14.5 0.00 0.00 0.00 47 1013.2
20260905194018 37 10 6.4 16.1 0.00 0.00 0.00 45 1013.1
20260905193520 37 340 6.4 16.1 0.00 0.00 0.00 47 1013.1
20260905193041 37 0 1.6 6.4 0.00 0.00 0.00 46 1013.0
20260905192522 37 0 0.0 6.4 0.00 0.00 0.00 44 1013.1
20260905192018 38 269 1.6 16.1 0.00 0.00 0.00 44 1013.2
20260905191533 38 9 3.2 16.1 0.00 0.00 0.00 42 1013.1
20260905191018 38 360 4.8 16.1 0.00 0.00 0.00 44 1013.2
20260905190522 38 18 1.6 8.0 0.00 0.00 0.00 47 1013.4
20260905190045 37 325 1.6 8.0 0.00 0.00 0.00 46 1013.4
20260905185517 37 164 3.2 14.5 0.00 0.00 0.00 48 1013.3
20260905185018 37 254 4.8 14.5 0.00 0.00 0.00 46 1013.4
20260905184536 37 250 3.2 12.9 0.00 0.00 0.00 48 1013.5
20260905184016 37 67 3.2 12.9 0.00 0.00 0.00 46 1013.6
20260905183518 37 339 6.4 12.9 0.00 0.00 0.00 47 1013.6
20260905183038 37 351 3.2 16.1 0.00 0.00 0.00 47 1013.7
20260905182520 37 11 4.8 16.1 0.00 0.00 0.00 48 1013.7
20260905182021 37 348 1.6 12.9 0.00 0.00 0.00 49 1013.9
20260905181537 37 344 4.8 12.9 0.00 0.00 0.00 45 1014.0
20260905181019 37 77 3.2 11.3 0.00 0.00 0.00 44 1013.9
20260905180520 37 360 1.6 16.1 0.00 0.00 0.00 45 1014.0
20260905180051 37 121 3.2 16.1 0.00 0.00 0.00 44 1014.1
20260905175519 37 352 3.2 14.5 0.00 0.00 0.00 47 1014.1
20260905175018 37 340 6.4 14.5 0.00 0.00 0.00 45 1014.3
20260905174534 37 347 4.8 9.7 0.00 0.00 0.00 47 1014.3
20260905174018 37 5 0.0 8.0 0.00 0.00 0.00 54 1014.4
20260905173518 36 79 1.6 9.7 0.00 0.00 0.00 47 1014.3
20260905173043 36 0 1.6 9.7 0.00 0.00 0.00 49 1014.4
20260905172518 36 13 1.6 9.7 0.00 0.00 0.00 47 1014.4
20260905172020 36 5 0.0 8.0 0.00 0.00 0.00 52 1014.4
20260905171548 36 319 1.6 8.0 0.00 0.00 0.00 48 1014.4
20260905171019 35 0 0.0 6.4 0.00 0.00 0.00 54 1014.4
20260905170517 35 36 1.6 6.4 0.00 0.00 0.00 54 1014.4
20260905170038 35 86 1.6 6.4 0.00 0.00 0.00 54 1014.5
20260905165522 35 69 0.0 6.4 0.00 0.00 0.00 59 1014.6
20260905165018 35 16 1.6 6.4 0.00 0.00 0.00 56 1014.7
20260905164536 35 236 1.6 6.4 0.00 0.00 0.00 58 1014.7
20260905164016 35 0 1.6 6.4 0.00 0.00 0.00 59 1014.9
20260905163520 34 0 0.0 4.8 0.00 0.00 0.00 59 1014.9
20260905163037 34 0 1.6 4.8 0.00 0.00 0.00 62 1015.1
20260905162520 34 19 0.0 4.8 0.00 0.00 0.00 60 1015.2
20260905162021 33 0 0.0 4.8 0.00 0.00 0.00 62 1015.4
20260905161536 33 18 3.2 4.8 0.00 0.00 0.00 62 1015.5
20260905161023 33 16 0.0 4.8 0.00 0.00 0.00 61 1015.5
20260905160519 33 0 1.6 3.2 0.00 0.00 0.00 64 1015.5
20260905160050 33 0 0.0 3.2 0.00 0.00 0.00 62 1015.5
20260905155517 33 0 0.0 6.4 0.00 0.00 0.00 63 1015.5
20260905155018 32 0 1.6 6.4 0.00 0.00 0.00 69 1015.5
20260905154540 32 15 1.6 6.4 0.00 0.00 0.00 65 1015.5
20260905154019 32 14 3.2 6.4 0.00 0.00 0.00 65 1015.7
20260905153519 32 5 1.6 4.8 0.00 0.00 0.00 68 1015.7
20260905153037 31 35 1.6 4.8 0.00 0.00 0.00 70 1015.7
20260905152518 31 31 0.0 4.8 0.00 0.00 0.00 71 1015.7
20260905152023 31 34 0.0 4.8 0.00 0.00 0.00 70 1015.9
20260905151538 30 33 0.0 4.8 0.00 0.00 0.00 71 1015.9
20260905151016 30 360 0.0 4.8 0.00 0.00 0.00 73 1015.9
20260905150518 30 0 1.6 8.0 0.00 0.00 0.00 74 1015.9
20260905150042 29 360 1.6 8.0 0.00 0.00 0.00 74 1016.0
20260905145521 29 344 1.6 8.0 0.00 0.00 0.00 76 1016.0
20260905145018 28 26 1.6 4.8 0.00 0.00 0.00 78 1016.1
20260905144538 28 103 0.0 4.8 0.00 0.00 0.00 80 1016.1
20260905144019 28 0 0.0 4.8 0.00 0.00 0.00 81 1016.2
20260905143519 27 0 1.6 4.8 0.00 0.00 0.00 83 1016.3
20260905143034 27 269 0.0 3.2 0.00 0.00 0.00 84 1016.3
20260905142521 26 0 0.0 3.2 0.00 0.00 0.00 88 1016.3
20260905142018 26 0 0.0 3.2 0.00 0.00 0.00 88 1016.2
20260905141538 26 275 0.0 4.8 0.00 0.00 0.00 88 1016.3
20260905141020 25 0 0.0 4.8 0.00 0.00 0.00 89 1016.3
20260905140524 25 0 0.0 0.0 0.00 0.00 0.00 89 1016.4
20260905140037 25 0 0.0 0.0 0.00 0.00 0.00 89 1016.4
20260905135520 25 0 0.0 0.0 0.00 0.00 0.00 90 1016.4
20260905135020 25 0 0.0 0.0 0.00 0.00 0.00 91 1016.4
20260905134534 24 0 0.0 0.0 0.00 0.00 0.00 92 1016.4